Date String (YYYY-MM-DD hh:mm:ss) UTC,Instrument flags,absolute air pressure of the measurement (hPa),sample flow rate (lpm),inlet stack bypass flow (lpm),air temperature of the measurement (°C),ambient temperature measured by the external sensor (°C),aerosol sample conditioner tube jacket temperature (°C),OPC LED temperature (°C),internal box temperature (°C),relative humidity of the measurement (%),span deviation,mass concentration of particles derived from Lorenz-Mie calculation of OPC scattering (μg/m³),mass concentration of particles derived from Lorenz-Mie calculation of OPC scattering (μg/m³),mass concentration of particles derived from Lorenz-Mie calculation of OPC scattering (μg/m³)
DateTimeUTC,F1_M11,P_M11,Q1_M11,Q2_M11,T1_M11,T2_M11,T3_M11,T4_M11,T5_M11,U1_M11,ZSPAN_M11,X0_M11,X2_M11,X1_M11
2023-07-07 05:00:00,SystemResetWarning,0831.3,5.00,000.00,029.3,026.4,000.0,037.8,030.6,31.2,0000.0,0011.54,0006.12,0005.52
2023-07-07 05:01:00,SystemResetWarning,0831.3,5.00,000.00,029.3,026.8,000.0,037.8,030.7,31.0,0000.0,0011.77,0006.09,0005.51
2023-07-07 05:02:00,SystemResetWarning,0831.3,5.00,000.00,029.3,027.1,000.0,037.8,030.7,31.1,0000.0,0011.79,0006.08,0005.50
2023-07-07 05:03:00,SystemResetWarning,0831.3,4.99,000.00,029.3,027.3,000.0,037.8,030.8,31.5,0000.0,0011.47,0006.06,0005.49
2023-07-07 05:04:00,SystemResetWarning,0831.3,4.99,000.00,029.3,027.5,000.0,037.8,030.8,31.5,0000.0,0011.75,0006.03,0005.48
2023-07-07 05:05:00,SystemResetWarning,0831.3,4.99,000.00,029.3,027.7,000.0,037.8,030.8,31.5,0000.0,0012.09,0006.00,0005.47
2023-07-07 05:06:00,SystemResetWarning,0831.3,5.00,000.00,029.3,027.8,000.0,037.9,030.9,31.0,0000.0,0011.31,0005.94,0005.46
2023-07-07 05:07:00,SystemResetWarning,0831.3,5.01,000.00,029.4,027.9,000.0,037.9,030.9,30.5,0000.0,0011.24,0005.93,0005.45
2023-07-07 05:08:00,SystemResetWarning,0831.3,5.01,000.00,029.4,028.0,000.0,037.9,031.0,29.5,-000.4,0011.30,0005.94,0005.45
2023-07-07 05:09:00,SystemResetWarning,0831.2,5.00,000.00,029.4,028.1,000.0,037.9,031.0,29.2,0000.0,0011.23,0005.92,0005.45
2023-07-07 05:10:00,SystemResetWarning,0831.2,5.00,000.00,029.4,028.2,000.0,037.9,031.0,29.3,0000.0,0010.93,0005.89,0005.45
2023-07-07 05:11:00,SystemResetWarning,0831.2,5.00,000.00,029.5,028.3,000.0,037.9,031.1,29.1,0000.0,0010.48,0005.88,0005.45
2023-07-07 05:12:00,SystemResetWarning,0831.2,5.00,000.00,029.5,028.3,000.0,037.9,031.1,29.3,-000.7,0009.82,0005.85,0005.44
2023-07-07 05:13:00,SystemResetWarning,0831.2,5.00,000.00,029.5,028.4,000.0,038.0,031.1,29.4,-001.7,0009.44,0005.82,0005.44
2023-07-07 05:14:00,SystemResetWarning,0831.3,5.00,000.00,029.6,028.4,000.0,038.0,031.1,29.6,-001.7,0009.38,0005.80,0005.44
2023-07-07 05:15:00,SystemResetWarning,0831.3,5.00,000.00,029.6,028.5,000.0,038.0,031.2,29.7,-001.5,0009.43,0005.79,0005.43
2023-07-07 05:16:00,SystemResetWarning,0831.2,4.99,000.00,029.6,028.3,000.0,038.0,031.2,29.6,-001.3,0008.96,0005.82,0005.42
2023-07-07 05:17:00,SystemResetWarning,0831.2,4.99,000.00,029.6,026.6,000.0,037.9,031.1,29.6,-001.2,0009.40,0005.82,0005.41
2023-07-07 05:18:00,SystemResetWarning,0831.2,5.00,000.00,029.5,025.4,000.0,037.8,030.9,29.8,-000.1,0009.66,0005.83,0005.40
2023-07-07 05:19:00,SystemResetWarning,0831.1,5.02,000.00,029.4,025.3,000.0,037.8,030.6,29.9,-000.1,0009.71,0005.81,0005.36
2023-07-07 05:20:00,SystemResetWarning,0831.1,5.00,000.00,029.3,025.7,000.0,037.8,030.5,29.7,-000.6,0009.99,0005.75,0005.33
2023-07-07 05:21:00,SystemResetWarning,0831.1,5.00,000.00,029.3,026.1,000.0,037.8,030.6,29.5,-001.2,0010.34,0005.76,0005.30
2023-07-07 05:22:00,SystemResetWarning,0831.1,5.00,000.00,029.3,026.5,000.0,037.8,030.6,29.4,-001.7,0010.32,0005.75,0005.27
2023-07-07 05:23:00,SystemResetWarning,0831.2,5.00,000.00,029.3,026.8,000.0,037.8,030.7,29.5,-002.2,0010.79,0005.74,0005.24
2023-07-07 05:24:00,SystemResetWarning,0831.1,5.00,000.00,029.3,027.1,000.0,037.8,030.8,29.5,-002.1,0011.22,0005.71,0005.21
2023-07-07 05:25:00,SystemResetWarning,0831.2,5.00,000.00,029.3,027.3,000.0,037.9,030.8,30.0,-000.0,0011.42,0005.70,0005.18
2023-07-07 05:26:00,SystemResetWarning,0831.1,4.99,000.00,029.3,027.6,000.0,037.9,030.8,30.2,0000.0,0011.23,0005.66,0005.14
2023-07-07 05:27:00,SystemResetWarning,0831.2,4.99,000.00,029.3,027.7,000.0,037.9,030.9,29.7,0000.0,0011.05,0005.58,0005.11
2023-07-07 05:28:00,SystemResetWarning,0831.2,5.01,000.00,029.3,027.9,000.0,037.9,030.9,29.6,0000.0,0010.53,0005.54,0005.10
2023-07-07 05:29:00,SystemResetWarning,0831.2,5.01,000.00,029.4,028.0,000.0,037.9,031.0,29.6,0000.0,0010.23,0005.50,0005.08
2023-07-07 05:30:00,SystemResetWarning,0831.1,4.99,000.00,029.4,028.1,000.0,037.9,031.0,29.4,0000.0,0010.22,0005.47,0005.07
2023-07-07 05:31:00,SystemResetWarning,0831.1,5.01,000.00,029.4,028.2,000.0,037.9,031.0,29.2,-001.4,0009.97,0005.46,0005.07
2023-07-07 05:32:00,SystemResetWarning,0831.1,5.00,000.00,029.5,028.2,000.0,037.9,031.1,29.1,-002.7,0009.69,0005.42,0005.06
2023-07-07 05:33:00,SystemResetWarning,0831.1,5.00,000.00,029.5,028.3,000.0,037.9,031.1,28.9,-002.9,0009.73,0005.42,0005.06
2023-07-07 05:34:00,SystemResetWarning,0831.1,5.00,000.00,029.5,028.3,000.0,038.0,031.1,28.7,-003.0,0009.28,0005.41,0005.06
2023-07-07 05:35:00,SystemResetWarning,0831.1,5.00,000.00,029.5,028.4,000.0,038.0,031.2,28.6,-000.9,0008.80,0005.40,0005.05
2023-07-07 05:36:00,SystemResetWarning,0831.1,5.00,000.00,029.6,028.4,000.0,038.0,031.2,28.4,-001.8,0008.65,0005.40,0005.06
2023-07-07 05:37:00,SystemResetWarning,0831.1,5.00,000.00,029.6,028.5,000.0,038.0,031.2,28.1,0000.0,0008.63,0005.42,0005.06
2023-07-07 05:38:00,SystemResetWarning,0831.1,4.99,000.00,029.6,027.2,000.0,038.0,031.1,27.9,-000.1,0008.65,0005.44,0005.05
2023-07-07 05:39:00,SystemResetWarning,0831.2,5.01,000.00,029.6,025.7,000.0,037.8,031.0,27.8,-003.4,0008.72,0005.44,0005.05
2023-07-07 05:40:00,SystemResetWarning,0831.1,5.01,000.00,029.5,025.3,000.0,037.8,030.7,27.9,-000.2,0008.93,0005.47,0005.06
2023-07-07 05:41:00,SystemResetWarning,0831.1,5.01,000.00,029.3,025.5,000.0,037.8,030.5,28.1,0000.0,0009.68,0005.49,0005.06
2023-07-07 05:42:00,SystemResetWarning,0831.2,4.99,000.00,029.3,025.9,000.0,037.8,030.5,28.1,0000.0,0009.65,0005.54,0005.05
2023-07-07 05:43:00,SystemResetWarning,0831.2,5.00,000.00,029.3,026.3,000.0,037.8,030.6,28.0,0000.0,0009.68,0005.55,0005.06
2023-07-07 05:44:00,SystemResetWarning,0831.2,5.01,000.00,029.3,026.7,000.0,037.8,030.7,28.1,0000.0,0009.88,0005.54,0005.05
2023-07-07 05:45:00,SystemResetWarning,0831.2,5.01,000.00,029.3,027.0,000.0,037.9,030.7,28.0,0000.0,0009.87,0005.52,0005.04
2023-07-07 05:46:00,SystemResetWarning,0831.2,4.98,000.00,029.3,027.2,000.0,037.9,030.8,27.9,0000.0,0010.44,0005.52,0005.03
2023-07-07 05:47:00,SystemResetWarning,0831.1,5.00,000.00,029.3,027.4,000.0,037.9,030.8,28.2,0000.0,0010.73,0005.52,0005.03
2023-07-07 05:48:00,SystemResetWarning,0831.1,5.02,000.00,029.3,027.6,000.0,037.9,030.8,28.4,0000.0,0010.82,0005.55,0005.04
2023-07-07 05:49:00,SystemResetWarning,0831.1,5.00,000.00,029.3,027.8,000.0,037.9,030.9,28.5,0000.0,0010.78,0005.55,0005.06
2023-07-07 05:50:00,SystemResetWarning,0831.1,5.00,000.00,029.3,027.9,000.0,037.9,030.9,28.3,0000.0,0010.75,0005.57,0005.08
2023-07-07 05:51:00,SystemResetWarning,0831.1,5.00,000.00,029.4,028.0,000.0,037.9,030.9,28.3,0000.0,0010.61,0005.59,0005.11
2023-07-07 05:52:00,SystemResetWarning,0831.1,5.00,000.00,029.4,028.1,000.0,037.9,031.0,28.0,0000.0,0009.77,0005.60,0005.14
2023-07-07 05:53:00,SystemResetWarning,0831.1,5.00,000.00,029.4,028.1,000.0,037.9,031.0,27.9,0000.0,0009.72,0005.60,0005.16
2023-07-07 05:54:00,SystemResetWarning,0831.1,5.00,000.00,029.5,028.2,000.0,037.9,031.1,27.9,0000.0,0009.76,0005.63,0005.18
2023-07-07 05:55:00,SystemResetWarning,0831.1,5.00,000.00,029.5,028.3,000.0,037.9,031.1,27.7,0000.0,0009.53,0005.65,0005.21
2023-07-07 05:56:00,SystemResetWarning,0831.2,5.00,000.00,029.5,028.3,000.0,038.0,031.1,27.7,0000.0,0009.96,0005.67,0005.23
2023-07-07 05:57:00,SystemResetWarning,0831.1,5.00,000.00,029.5,028.4,000.0,038.0,031.2,27.5,0000.0,0009.55,0005.69,0005.26
2023-07-07 05:58:00,SystemResetWarning,0831.1,5.00,000.00,029.6,028.4,000.0,038.0,031.2,27.4,0000.0,0009.47,0005.71,0005.27
2023-07-07 05:59:00,SystemResetWarning,0831.1,5.00,000.00,029.6,028.4,000.0,038.0,031.2,27.4,0000.0,0009.40,0005.70,0005.28
